AEZ431 LIRN-LIMJ

Flight info

Callsign AEZ431
Flight time 1h 7m
Altitude 30000
Route EDOPA DCT VEXUV DCT PNZ DCT RIFFI DCT ELB DCT BETEN M729 IDONA
Aircraft B738/M-SDE2E3FGHIRWXY/LB1

Departure

Time 2026-05-07 06:14
Airport Naples International Airport (LIRN)

Arrival

Time 2026-05-07 07:22
Airport Genoa Cristoforo Colombo Airport (LIMJ)
Time Latitude Longitude Altitude Speed Heading
2026-05-07 05:38 40.87839 14.28088 299 ft 0 kts 141°
2026-05-07 06:03 40.87851 14.28075 303 ft 4 kts 141°
2026-05-07 06:04 40.87872 14.28052 301 ft 4 kts 133°
2026-05-07 06:04 40.87885 14.28024 300 ft 4 kts 101°
2026-05-07 06:04 40.87883 14.27995 302 ft 2 kts 52°
2026-05-07 06:04 40.87882 14.27993 302 ft 1 kts 51°
2026-05-07 06:10 40.87896 14.28016 300 ft 7 kts 50°
2026-05-07 06:10 40.87944 14.28093 297 ft 15 kts 50°
2026-05-07 06:11 40.88042 14.28199 296 ft 22 kts 51°
2026-05-07 06:11 40.88059 14.28416 288 ft 27 kts 95°
2026-05-07 06:11 40.88079 14.28664 286 ft 29 kts 54°
2026-05-07 06:11 40.88205 14.28883 276 ft 31 kts 52°
2026-05-07 06:12 40.88336 14.29107 269 ft 31 kts 53°
2026-05-07 06:12 40.88465 14.29335 261 ft 31 kts 53°
2026-05-07 06:12 40.88597 14.29561 254 ft 31 kts 52°
2026-05-07 06:12 40.88730 14.29788 247 ft 31 kts 52°
2026-05-07 06:13 40.88861 14.30020 240 ft 32 kts 53°
2026-05-07 06:13 40.88967 14.30181 236 ft 14 kts 20°
2026-05-07 06:13 40.89051 14.30128 238 ft 13 kts 326°
2026-05-07 06:13 40.89070 14.30043 237 ft 9 kts 234°
2026-05-07 06:14 40.88878 14.29655 248 ft 96 kts 238°
2026-05-07 06:14 40.88386 14.28601 372 ft 162 kts 240°
2026-05-07 06:14 40.87782 14.27263 1279 ft 172 kts 240°
2026-05-07 06:14 40.86949 14.26188 2431 ft 174 kts 206°
2026-05-07 06:15 40.85726 14.26037 3285 ft 183 kts 170°
2026-05-07 06:15 40.84507 14.26422 4285 ft 181 kts 170°
2026-05-07 06:15 40.83251 14.26783 5112 ft 187 kts 172°
2026-05-07 06:15 40.81952 14.27084 5856 ft 193 kts 174°
2026-05-07 06:16 40.80584 14.27349 6382 ft 209 kts 175°
2026-05-07 06:16 40.79110 14.27589 6877 ft 222 kts 176°
2026-05-07 06:16 40.77562 14.27808 7652 ft 224 kts 178°
2026-05-07 06:16 40.76000 14.28010 8476 ft 227 kts 179°
2026-05-07 06:17 40.74388 14.28208 9263 ft 232 kts 179°
2026-05-07 06:17 40.72788 14.28399 10049 ft 236 kts 180°
2026-05-07 06:17 40.71169 14.28307 10784 ft 230 kts 204°
2026-05-07 06:17 40.69750 14.27255 11197 ft 246 kts 220°
2026-05-07 06:18 40.68396 14.25759 11775 ft 259 kts 224°
2026-05-07 06:18 40.67042 14.24171 12678 ft 262 kts 224°
2026-05-07 06:18 40.65675 14.22566 13637 ft 264 kts 224°
2026-05-07 06:18 40.64293 14.20957 14503 ft 266 kts 223°
2026-05-07 06:19 40.62898 14.19345 15375 ft 266 kts 223°
2026-05-07 06:19 40.61516 14.17757 16145 ft 268 kts 223°
2026-05-07 06:19 40.60099 14.16136 16890 ft 271 kts 222°
2026-05-07 06:19 40.58664 14.14499 17662 ft 273 kts 222°
2026-05-07 06:20 40.57222 14.12857 18417 ft 275 kts 222°
2026-05-07 06:20 40.55762 14.11197 19011 ft 280 kts 222°
2026-05-07 06:20 40.54271 14.09504 19590 ft 285 kts 222°
2026-05-07 06:20 40.52760 14.07790 20213 ft 289 kts 222°
2026-05-07 06:21 40.51231 14.06046 20799 ft 293 kts 225°
2026-05-07 06:21 40.49988 14.03910 21362 ft 297 kts 243°
2026-05-07 06:21 40.49197 14.01382 21982 ft 301 kts 249°
2026-05-07 06:21 40.48488 13.98798 22563 ft 305 kts 250°
2026-05-07 06:22 40.47774 13.96148 23136 ft 310 kts 250°
2026-05-07 06:22 40.46300 13.90761 24198 ft 317 kts 249°
2026-05-07 06:22 40.45542 13.88037 24732 ft 319 kts 249°
2026-05-07 06:23 40.44773 13.85290 25244 ft 321 kts 249°
2026-05-07 06:23 40.43996 13.82528 25748 ft 324 kts 249°
2026-05-07 06:23 40.43290 13.79712 26226 ft 327 kts 259°
2026-05-07 06:23 40.43280 13.76711 26700 ft 332 kts 278°
2026-05-07 06:24 40.44009 13.73816 27197 ft 339 kts 297°
2026-05-07 06:24 40.45352 13.71288 27700 ft 343 kts 304°
2026-05-07 06:24 40.46849 13.68832 28203 ft 346 kts 306°
2026-05-07 06:24 40.48386 13.66383 28658 ft 349 kts 306°
2026-05-07 06:25 40.49956 13.63880 29121 ft 352 kts 306°
2026-05-07 06:25 40.51493 13.61412 29571 ft 354 kts 306°
2026-05-07 06:25 40.53049 13.58891 29991 ft 357 kts 305°
2026-05-07 06:25 40.54634 13.56305 29996 ft 368 kts 305°
2026-05-07 06:26 40.57927 13.50902 30029 ft 389 kts 305°
2026-05-07 06:26 40.61396 13.45192 30027 ft 408 kts 305°
2026-05-07 06:27 40.64988 13.39271 30029 ft 425 kts 305°
2026-05-07 06:27 40.68743 13.33072 30020 ft 440 kts 305°
2026-05-07 06:28 40.72612 13.26667 30024 ft 452 kts 305°
2026-05-07 06:28 40.76577 13.20088 30027 ft 462 kts 305°
2026-05-07 06:29 40.80604 13.13393 30016 ft 467 kts 305°
2026-05-07 06:29 40.84616 13.06707 30016 ft 467 kts 305°
2026-05-07 06:30 40.88657 12.99959 30016 ft 467 kts 305°
2026-05-07 06:30 40.92795 12.93328 30015 ft 469 kts 310°
2026-05-07 06:31 40.97367 12.87152 30019 ft 470 kts 312°
2026-05-07 06:31 41.01989 12.81037 30020 ft 469 kts 311°
2026-05-07 06:32 41.06536 12.74903 30018 ft 469 kts 311°
2026-05-07 06:32 41.11079 12.68706 30010 ft 468 kts 311°
2026-05-07 06:33 41.15618 12.62496 30017 ft 468 kts 310°
2026-05-07 06:33 41.19391 12.57330 30014 ft 468 kts 310°
2026-05-07 06:34 41.23915 12.51129 30015 ft 468 kts 310°
2026-05-07 06:34 41.28455 12.44914 30017 ft 468 kts 310°
2026-05-07 06:35 41.32979 12.38713 30012 ft 467 kts 310°
2026-05-07 06:35 41.37511 12.32486 30013 ft 467 kts 310°
2026-05-07 06:36 41.42001 12.26299 30015 ft 467 kts 309°
2026-05-07 06:36 41.46514 12.20068 30019 ft 466 kts 309°
2026-05-07 06:37 41.51018 12.13836 30018 ft 466 kts 309°
2026-05-07 06:37 41.55512 12.07604 30015 ft 466 kts 309°
2026-05-07 06:38 41.60005 12.01361 30017 ft 465 kts 309°
2026-05-07 06:38 41.64485 11.95122 30019 ft 465 kts 309°
2026-05-07 06:39 41.68964 11.88871 30014 ft 465 kts 309°
2026-05-07 06:39 41.73432 11.82622 30017 ft 464 kts 308°
2026-05-07 06:40 41.77893 11.76369 30014 ft 464 kts 308°
2026-05-07 06:40 41.82335 11.70130 30013 ft 464 kts 308°
2026-05-07 06:41 41.86792 11.63855 30010 ft 464 kts 308°
2026-05-07 06:41 41.91216 11.57615 30003 ft 464 kts 308°
2026-05-07 06:42 41.95668 11.51321 30000 ft 463 kts 308°
2026-05-07 06:42 42.00105 11.45036 30003 ft 463 kts 308°
2026-05-07 06:43 42.04535 11.38745 29999 ft 463 kts 308°
2026-05-07 06:43 42.08966 11.32439 30001 ft 463 kts 307°
2026-05-07 06:44 42.13363 11.26170 30005 ft 463 kts 307°
2026-05-07 06:44 42.17779 11.19859 30004 ft 462 kts 307°
2026-05-07 06:45 42.22203 11.13523 30003 ft 462 kts 307°
2026-05-07 06:45 42.26607 11.07201 30009 ft 462 kts 307°
2026-05-07 06:46 42.31006 11.00873 30004 ft 461 kts 307°
2026-05-07 06:46 42.35391 10.94552 29997 ft 460 kts 307°
2026-05-07 06:47 42.39764 10.88232 29997 ft 460 kts 307°
2026-05-07 06:47 42.44099 10.81956 30004 ft 459 kts 307°
2026-05-07 06:48 42.48453 10.75637 30008 ft 458 kts 307°
2026-05-07 06:48 42.52799 10.69316 30010 ft 458 kts 306°
2026-05-07 06:49 42.57135 10.62996 30012 ft 457 kts 306°
2026-05-07 06:49 42.61469 10.56664 30010 ft 457 kts 306°
2026-05-07 06:50 42.65790 10.50337 30013 ft 456 kts 306°
2026-05-07 06:50 42.70095 10.44022 30012 ft 455 kts 306°
2026-05-07 06:51 42.74840 10.38207 30001 ft 467 kts 319°
2026-05-07 06:51 42.80549 10.33819 30005 ft 472 kts 324°
2026-05-07 06:52 42.86287 10.29602 30009 ft 471 kts 324°
2026-05-07 06:52 42.92041 10.25304 30006 ft 471 kts 323°
2026-05-07 06:53 42.97771 10.20966 30007 ft 470 kts 323°
2026-05-07 06:53 43.03491 10.16614 30002 ft 470 kts 323°
2026-05-07 06:54 43.09167 10.12290 30005 ft 467 kts 323°
2026-05-07 06:54 43.14820 10.07977 29999 ft 464 kts 323°
2026-05-07 06:55 43.20417 10.03702 29413 ft 452 kts 323°
2026-05-07 06:55 43.23108 10.01646 29083 ft 445 kts 323°
2026-05-07 06:55 43.25842 9.99541 28827 ft 457 kts 323°
2026-05-07 06:56 43.28649 9.97372 28563 ft 468 kts 323°
2026-05-07 06:56 43.31515 9.95157 27488 ft 475 kts 324°
2026-05-07 06:56 43.34400 9.92940 26476 ft 474 kts 324°
2026-05-07 06:56 43.37284 9.90726 25591 ft 471 kts 324°
2026-05-07 06:57 43.40128 9.88543 24867 ft 465 kts 324°
2026-05-07 06:57 43.42937 9.86380 24138 ft 460 kts 324°
2026-05-07 06:57 43.45716 9.84234 23354 ft 456 kts 324°
2026-05-07 06:57 43.48474 9.82098 22519 ft 451 kts 324°
2026-05-07 06:58 43.51193 9.79991 21757 ft 445 kts 325°
2026-05-07 06:58 43.53839 9.77940 21018 ft 440 kts 325°
2026-05-07 06:58 43.56486 9.75888 20308 ft 434 kts 325°
2026-05-07 06:58 43.59142 9.73833 19581 ft 429 kts 326°
2026-05-07 06:59 43.61688 9.71864 18895 ft 424 kts 326°
2026-05-07 06:59 43.64252 9.69879 18176 ft 420 kts 326°
2026-05-07 06:59 43.66780 9.67919 17389 ft 415 kts 327°
2026-05-07 06:59 43.69290 9.65970 16654 ft 410 kts 327°
2026-05-07 07:00 43.71765 9.64046 15944 ft 405 kts 327°
2026-05-07 07:00 43.74209 9.62145 15256 ft 401 kts 327°
2026-05-07 07:00 43.76625 9.60264 14581 ft 396 kts 327°
2026-05-07 07:00 43.79015 9.58401 13910 ft 392 kts 328°
2026-05-07 07:01 43.81380 9.56551 13189 ft 388 kts 328°
2026-05-07 07:01 43.83726 9.54714 12499 ft 385 kts 328°
2026-05-07 07:01 43.86009 9.52926 12331 ft 368 kts 327°
2026-05-07 07:01 43.88192 9.51216 12157 ft 353 kts 327°
2026-05-07 07:02 43.90259 9.49593 12026 ft 339 kts 327°
2026-05-07 07:02 43.92277 9.48007 11884 ft 327 kts 327°
2026-05-07 07:02 43.94219 9.46480 11754 ft 315 kts 327°
2026-05-07 07:02 43.96093 9.45006 11623 ft 304 kts 327°
2026-05-07 07:03 43.97895 9.43560 11491 ft 293 kts 322°
2026-05-07 07:03 43.99288 9.41630 11376 ft 277 kts 302°
2026-05-07 07:03 44.00354 9.39468 11268 ft 267 kts 300°
2026-05-07 07:03 44.01378 9.37367 11158 ft 259 kts 301°
2026-05-07 07:04 44.02377 9.35329 11037 ft 251 kts 301°
2026-05-07 07:04 44.03392 9.33389 10838 ft 249 kts 309°
2026-05-07 07:04 44.04707 9.31824 10506 ft 254 kts 318°
2026-05-07 07:04 44.06151 9.30363 10097 ft 261 kts 324°
2026-05-07 07:05 44.07908 9.29550 9634 ft 273 kts 353°
2026-05-07 07:05 44.09754 9.30031 9447 ft 268 kts 24°
2026-05-07 07:05 44.11175 9.31593 9309 ft 257 kts 50°
2026-05-07 07:05 44.12255 9.33529 9215 ft 251 kts 52°
2026-05-07 07:06 44.13300 9.35455 9112 ft 249 kts 47°
2026-05-07 07:06 44.14718 9.36739 9008 ft 244 kts 10°
2026-05-07 07:06 44.16364 9.36721 8921 ft 234 kts 339°
2026-05-07 07:06 44.17801 9.35750 8864 ft 228 kts 321°
2026-05-07 07:07 44.19058 9.34450 8768 ft 227 kts 317°
2026-05-07 07:07 44.20308 9.33097 8680 ft 228 kts 318°
2026-05-07 07:07 44.21564 9.31741 8590 ft 229 kts 318°
2026-05-07 07:07 44.22825 9.30382 8500 ft 230 kts 318°
2026-05-07 07:08 44.24099 9.29023 8412 ft 231 kts 319°
2026-05-07 07:08 44.25378 9.27666 8321 ft 231 kts 319°
2026-05-07 07:08 44.26662 9.26305 8229 ft 232 kts 319°
2026-05-07 07:08 44.27844 9.24798 8108 ft 229 kts 298°
2026-05-07 07:09 44.28320 9.22750 8056 ft 220 kts 271°
2026-05-07 07:09 44.28321 9.20627 7978 ft 219 kts 265°
2026-05-07 07:09 44.28245 9.18492 7886 ft 220 kts 265°
2026-05-07 07:09 44.28171 9.16345 7799 ft 222 kts 265°
2026-05-07 07:10 44.28103 9.14193 7714 ft 223 kts 265°
2026-05-07 07:10 44.28038 9.12052 7627 ft 224 kts 265°
2026-05-07 07:10 44.27975 9.09870 7541 ft 225 kts 265°
2026-05-07 07:10 44.27913 9.07688 7445 ft 223 kts 266°
2026-05-07 07:11 44.27852 9.05532 7363 ft 221 kts 266°
2026-05-07 07:11 44.27794 9.03408 7269 ft 218 kts 266°
2026-05-07 07:11 44.27735 9.01302 7189 ft 217 kts 266°
2026-05-07 07:11 44.27675 8.99201 7109 ft 216 kts 266°
2026-05-07 07:12 44.27616 8.97103 7030 ft 216 kts 266°
2026-05-07 07:12 44.27556 8.95006 6951 ft 216 kts 266°
2026-05-07 07:12 44.27496 8.92904 6864 ft 217 kts 266°
2026-05-07 07:12 44.27434 8.90790 6783 ft 218 kts 266°
2026-05-07 07:13 44.27374 8.88702 6701 ft 218 kts 266°
2026-05-07 07:13 44.27312 8.86581 6618 ft 219 kts 266°
2026-05-07 07:13 44.27249 8.84455 6535 ft 219 kts 266°
2026-05-07 07:13 44.27187 8.82329 6457 ft 219 kts 266°
2026-05-07 07:14 44.27124 8.80205 6387 ft 219 kts 266°
2026-05-07 07:14 44.27060 8.78074 6298 ft 220 kts 266°
2026-05-07 07:14 44.26996 8.75946 6213 ft 220 kts 266°
2026-05-07 07:14 44.26931 8.73817 6129 ft 220 kts 267°
2026-05-07 07:15 44.26866 8.71685 6042 ft 220 kts 267°
2026-05-07 07:15 44.26891 8.69546 5882 ft 224 kts 281°
2026-05-07 07:15 44.27309 8.67437 5708 ft 226 kts 285°
2026-05-07 07:15 44.27736 8.65335 5497 ft 224 kts 285°
2026-05-07 07:16 44.28146 8.63251 5298 ft 221 kts 285°
2026-05-07 07:16 44.28728 8.61285 5079 ft 218 kts 309°
2026-05-07 07:16 44.29754 8.60146 4865 ft 218 kts 338°
2026-05-07 07:16 44.31258 8.59881 4550 ft 222 kts
2026-05-07 07:17 44.32784 8.60337 4209 ft 226 kts 15°
2026-05-07 07:17 44.34288 8.60954 3833 ft 225 kts 25°
2026-05-07 07:17 44.35495 8.62279 3492 ft 219 kts 52°
2026-05-07 07:17 44.36318 8.64041 3181 ft 216 kts 61°
2026-05-07 07:18 44.37055 8.65856 2856 ft 213 kts 62°
2026-05-07 07:18 44.37779 8.67646 2587 ft 206 kts 62°
2026-05-07 07:18 44.38448 8.69316 2511 ft 188 kts 62°
2026-05-07 07:18 44.39054 8.70813 2453 ft 166 kts 62°
2026-05-07 07:19 44.39674 8.72189 2017 ft 169 kts 57°
2026-05-07 07:19 44.40139 8.73072 1734 ft 168 kts 52°
2026-05-07 07:19 44.40886 8.74205 1563 ft 150 kts 47°
2026-05-07 07:19 44.41764 8.75642 1000 ft 148 kts 65°
2026-05-07 07:20 44.42042 8.77015 836 ft 144 kts 85°
2026-05-07 07:20 44.42109 8.78416 694 ft 143 kts 93°
2026-05-07 07:20 44.42008 8.79740 598 ft 139 kts 98°
2026-05-07 07:20 44.41815 8.81055 317 ft 136 kts 103°
2026-05-07 07:21 44.41651 8.81903 146 ft 133 kts 105°
2026-05-07 07:21 44.41410 8.83094 26 ft 118 kts 104°
2026-05-07 07:21 44.41228 8.84046 19 ft 81 kts 105°
2026-05-07 07:21 44.41103 8.84689 19 ft 55 kts 105°
2026-05-07 07:22 44.41127 8.84874 20 ft 18 kts 26°
2026-05-07 07:22 44.41218 8.84912 19 ft 0 kts 12°
2026-05-07 07:23 44.41402 8.85101 21 ft 0 kts 16°